Regional Weather Roundup
Issued by NWS Midland/Odessa, TX

Home | Current Version | Previous Version | Text Only | Print | Product List | Glossary On
Versions: 1 2 3 4 5 6 7 8 9 10 11 12 13 14 15 16 17 18 19 20 21 22 23 24 25 26 27 28 29 30 31 32 33 34 35 36 37 38 39 40 41 42 43 44 45 46 47 48 49 50
776
ASUS44 KMAF 280110
RWRMAF
MIDLAND AREA WEATHER ROUNDUP
NATIONAL WEATHER SERVICE MIDLAND TX
800 PM CDT WED JUL 27 2016

...IN SOUTHWEST TEXAS AND SOUTHEAST NEW MEXICO...

CITY           SKY/WX    TMP DP  RH WIND       PRES   REMARKS
ALPINE         PTCLDY    86  55  34 E14       30.11S
ANDREWS        FAIR      91  56  30 E8G17     29.98S
ARTESIA        SUNNY     93  54  26 SE7       29.99R
BIG SPRING     MOCLDY    89  59  36 E10       29.96S
CARLSBAD       MOSUNNY   94  53  25 SE9       29.95F
DRYDEN           N/A     90  65  43 SE15G22   29.90R
FORT STOCKTON  CLEAR     91  58  32 E16       29.96S
GUAD PASS      SUNNY     83  48  29 E22       30.14S
HOBBS          CLOUDY    84  57  39 N22G31    30.04S
MARFA          CLEAR     83  55  38 NE18      30.09S
MIDLAND AIRPK  CLOUDY    93  59  32 SE12      29.96R
MIDLAND INTL   PTCLDY    93  62  35 S16       29.95R
ODESSA         MOCLDY    95  54  25 NE9       29.96S
PECOS          CLEAR     94  54  25 E12G18    29.92F
PRESIDIO       FAIR      92  58  31 NE8       29.90F
SEMINOLE       CLEAR     84  60  43 NE14      30.03R
SNYDER           N/A     91  62  37 NE7       29.94S
WINK           CLEAR     95  54  25 NE9       29.92F
$$
...OTHER STATIONS IN TEXAS...

CITY           SKY/WX    TMP DP  RH WIND       PRES   REMARKS
ABILENE        PTCLDY    90  67  46 SE10      29.91S
AMARILLO       CLEAR     84  58  40 SE7       30.04R
AUSTIN         CLOUDY    82  72  71 SE13      29.91F
BROWNSVILLE    PTCLDY    87  77  72 SE16      29.89S
CORPUS CHRISTI MOCLDY    86  75  69 SE17      29.89R
DALLAS FTW     MOCLDY    87  72  60 E5        29.87F
DEL RIO        CLEAR     86  70  58 SE12      29.87F
EL PASO        PTSUNNY   90  54  29 E10       30.00S
HOUSTON INT    CLOUDY    84  77  79 SE5       29.93R
LUBBOCK        MOCLDY    85  59  41 N5        30.00R
SAN ANGELO     PTCLDY    85  69  58 S14G22    29.91R
SAN ANTONIO    CLOUDY    80  74  81 E3        29.92R
WACO           PTCLDY    83  71  67 S12       29.90R
WICHITA FALLS  NOT AVBL
$$
...OTHER LOCATIONS IN NEW MEXICO...

CITY           SKY/WX    TMP DP  RH WIND       PRES   REMARKS
ALAMAGORDO     SUNNY     90  54  29 S9        30.03S
ALBUQUERQUE    PTSUNNY   87  45  23 SE17      30.10S
CANNON AFB     PTSUNNY   81  60  48 SE10      30.09S
CLOVIS         MOSUNNY   81  55  41 SE6       30.09S
HOLLOMAN AFB   SUNNY     92  53  25 SE10      30.00S
ROSWELL        CLOUDY    83  58  42 E24G33    30.02R
RUIDOSO          N/A     77  50  38 S5        30.28S
SANTA FE       SUNNY     86  43  22 SE17G24   30.17F
TRUTH OR CONSE MOSUNNY   90  53  28 SE14      30.04F
TUCUMCARI      CLOUDY    80  58  46 SE21G33   30.05R
$$




USA.gov is the U.S. government's official web portal to all federal, state and local government web resources and services.